THOR BURNER 2 R/B, 2741

Orbit data source: Space-Track

THOR BURNER 2 R/B, 2741 is space debris in SSO originally from a launch on Wed, 08 Feb 1967 UTC launched from the Air Force Western Test Range (AFWTR). Debris objects in space refer to the collection of defunct objects orbiting the Earth. Examples of debris include non-operational satellites, rocket bodies, and fragments generated from explosions, collisions, or faulty payload assembly.

Loading next visibility...
THOR BURNER 2 R/B details
Identifier
2741, 1967-010B
Orbit
SSO
Last TLE update5 hours ago
Origin
Flag of USUSAF SSD (US)
ManufacturerThiokol/TE
MissionSpacecraft
Bus & MotorSTAR 37, Unknown motor
Mass136 kg wet, 136 kg dry
Launch date (UTC)
1967-02-08 (58 years ago)
Launch vehicleUnknown
Launch site
Air Force Western Test Range (AFWTR)
Object type
Payload
Rocket body
Debris
Shape & HBRSphere + Cone + 1 Truss, 1.7 m
Radar Cross Section2.270 m², Large (>1 m²)

Expand to show TLE details & history

TLE from 5 hours ago
0 THOR BURNER 2 R/B
1 02741U 67010B   25044.58046456  .00000414  00000-0  18005-3 0  9997
2 02741  98.9220 340.7714 0051628 263.9800  95.5496 14.28916390 15481
Epoch: 2025-02-13T13:55Z
Definitive object data (Epoch: 2025-02-13T13:55:52.137Z)
Latitude-0.00003°
Longitude-12.05037°
Altitude802.047 km
Speed7.45 km/s
True Right ascension22h 43m 05s
True Declination0° 00' 00"
Sunlit
Object was in daylight at TLE epoch
Visualization TLE readout
Latitude-65.54563°
Longitude148.05967°
Altitude784.707 km
Speed7.479 km/s
Apparent Right ascension09h 10m 28s
Apparent Declination-53° 20' 54"
Sunlit
Object is in daylight
Visualization observer readout
Local Sidereal Time21:02:34
Azimuth185.064° SSW
Elevation-76.501°
Doppler factor1
Orbital elements
Apogee altitude829.533 km
Perigee altitude755.491 km
Semi-major axis7,170.649 km
Eccentricity0.0051628
Inclination98.922°
RAAN340.7714°
Arg. of periapsis263.98°
True anomaly96.13806°
Mean anomaly95.5496°
Eccentric anomaly95.84387°
Mean motion3.57442 °/min
BSTAR0.00018005
Orbital period100.72 mins
Loading maneuver chart data...
Loading historical data...
Loading historical data...
Loading historical data...
Loading historical data...
Loading historical data...
Loading historical data...
Loading historical data...
Other satellites on launch #10 in the year 1967 (1967-02-08 UTC)

THOR BURNER 2 R/B Visibility forecast

Observer location: undefined°, undefined

Span
Click to sort rows by Start time (UTC) header in descending order
Start Az.
Max El. time (UTC)
Max El. Az.
Max El.
End time (UTC)
End Az.
9 mins2025-02-13 19:05:52.859Z142.095° SSE2025-02-13 19:09:52.859Z82.122° E37.456°2025-02-13 19:14:52.859Z358.265° N
5 mins2025-02-13 20:47:52.859Z237.721° WSW2025-02-13 20:49:52.859Z265.583° W18.779°2025-02-13 20:52:52.859Z304.843° NW
5 mins2025-02-14 07:21:52.859Z62.474° ENE2025-02-14 07:23:52.859Z88.946° E17.75°2025-02-14 07:26:52.859Z128.397° SE
9 mins2025-02-14 08:59:52.859Z0.482° NNE2025-02-14 09:03:52.859Z292.752° NW38.549°2025-02-14 09:08:52.859Z214.062° SW
|